N8184G MYNN-MDPC

Flight info

Callsign N8184G
Flight time 2h 43m
Altitude 29000
Route BOSAR DCT RUMFO Y441 JUELE DCT PTA UW28 PETRI/N0274F190 W28 BEREL BEREL2B
Aircraft SF50/L-BDGRSWY/LB2U2

Departure

Time 2026-05-07 22:54
Airport Lynden Pindling International Airport (MYNN)

Arrival

Time 2026-05-08 01:37
Airport Punta Cana International Airport (MDPC)
Time Latitude Longitude Altitude Speed Heading
2026-05-07 22:17 25.04754 -77.46524 6 ft 0 kts 360°
2026-05-07 22:43 25.04747 -77.46555 6 ft 11 kts 247°
2026-05-07 22:43 25.04695 -77.46585 6 ft 9 kts 154°
2026-05-07 22:43 25.04611 -77.46539 6 ft 18 kts 141°
2026-05-07 22:43 25.04507 -77.46524 6 ft 14 kts 154°
2026-05-07 22:44 25.04408 -77.46443 6 ft 23 kts 132°
2026-05-07 22:44 25.04275 -77.46297 5 ft 27 kts 133°
2026-05-07 22:44 25.04156 -77.46163 5 ft 22 kts 136°
2026-05-07 22:44 25.04057 -77.46053 5 ft 18 kts 135°
2026-05-07 22:45 25.03979 -77.45967 6 ft 14 kts 138°
2026-05-07 22:45 25.03921 -77.45905 6 ft 10 kts 136°
2026-05-07 22:45 25.03884 -77.45865 6 ft 0 kts 134°
2026-05-07 22:47 25.03883 -77.45864 6 ft 1 kts 134°
2026-05-07 22:48 25.03854 -77.45831 6 ft 9 kts 135°
2026-05-07 22:48 25.03805 -77.45776 6 ft 11 kts 134°
2026-05-07 22:48 25.03746 -77.45710 6 ft 13 kts 137°
2026-05-07 22:48 25.03679 -77.45635 6 ft 15 kts 134°
2026-05-07 22:49 25.03600 -77.45547 5 ft 17 kts 135°
2026-05-07 22:49 25.03515 -77.45452 5 ft 19 kts 133°
2026-05-07 22:49 25.03420 -77.45350 4 ft 20 kts 137°
2026-05-07 22:49 25.03312 -77.45229 4 ft 22 kts 133°
2026-05-07 22:50 25.03218 -77.45178 5 ft 3 kts 167°
2026-05-07 22:50 25.03210 -77.45176 4 ft 5 kts 172°
2026-05-07 22:50 25.03180 -77.45180 5 ft 4 kts 187°
2026-05-07 22:50 25.03116 -77.45195 5 ft 7 kts 200°
2026-05-07 22:51 25.03119 -77.45202 5 ft 4 kts 22°
2026-05-07 22:51 25.03180 -77.45191 5 ft 12 kts
2026-05-07 22:51 25.03174 -77.45176 5 ft 6 kts 190°
2026-05-07 22:51 25.03113 -77.45202 5 ft 14 kts 231°
2026-05-07 22:52 25.03106 -77.45279 5 ft 1 kts 314°
2026-05-07 22:52 25.03107 -77.45280 5 ft 0 kts 314°
2026-05-07 22:52 25.03111 -77.45284 5 ft 0 kts 315°
2026-05-07 22:53 25.03112 -77.45285 5 ft 2 kts 315°
2026-05-07 22:53 25.03212 -77.45398 3 ft 54 kts 315°
2026-05-07 22:53 25.03689 -77.45925 12 ft 136 kts 314°
2026-05-07 22:54 25.04435 -77.46739 625 ft 161 kts 316°
2026-05-07 22:54 25.05275 -77.47621 1417 ft 179 kts 316°
2026-05-07 22:54 25.06200 -77.48593 2342 ft 186 kts 316°
2026-05-07 22:54 25.07125 -77.49565 3251 ft 172 kts 316°
2026-05-07 22:55 25.07995 -77.50457 3728 ft 168 kts 317°
2026-05-07 22:55 25.08867 -77.51194 4412 ft 151 kts 329°
2026-05-07 22:55 25.09760 -77.51704 5020 ft 140 kts 328°
2026-05-07 22:55 25.10652 -77.52301 5581 ft 145 kts 329°
2026-05-07 22:56 25.11544 -77.52851 6152 ft 156 kts 328°
2026-05-07 22:56 25.12394 -77.53638 6872 ft 181 kts 311°
2026-05-07 22:56 25.13404 -77.54603 7318 ft 208 kts 322°
2026-05-07 22:56 25.14607 -77.55597 7675 ft 217 kts 323°
2026-05-07 22:57 25.15667 -77.56705 8189 ft 191 kts 313°
2026-05-07 22:57 25.16565 -77.57717 8570 ft 178 kts 317°
2026-05-07 22:57 25.17546 -77.58601 8538 ft 194 kts 324°
2026-05-07 22:57 25.18736 -77.59422 8774 ft 200 kts 320°
2026-05-07 22:58 25.19687 -77.60623 8278 ft 217 kts 308°
2026-05-07 22:58 25.20507 -77.62061 7715 ft 224 kts 302°
2026-05-07 22:58 25.21393 -77.63037 9216 ft 163 kts 325°
2026-05-07 22:58 25.22571 -77.63626 8340 ft 232 kts 346°
2026-05-07 22:59 25.24034 -77.64341 8290 ft 233 kts 338°
2026-05-07 22:59 25.25603 -77.64283 8459 ft 230 kts 23°
2026-05-07 22:59 25.26840 -77.63185 8609 ft 228 kts 52°
2026-05-07 22:59 25.27815 -77.61799 8762 ft 225 kts 52°
2026-05-07 23:00 25.28678 -77.60468 9336 ft 217 kts 56°
2026-05-07 23:00 25.29530 -77.58927 8950 ft 245 kts 59°
2026-05-07 23:00 25.30417 -77.57238 8732 ft 259 kts 60°
2026-05-07 23:00 25.31250 -77.55623 9342 ft 247 kts 54°
2026-05-07 23:01 25.32654 -77.55238 9389 ft 229 kts 300°
2026-05-07 23:01 25.31553 -77.55629 7869 ft 203 kts 168°
2026-05-07 23:01 25.30212 -77.55352 7511 ft 193 kts 172°
2026-05-07 23:01 25.28948 -77.55040 7334 ft 178 kts 160°
2026-05-07 23:02 25.27926 -77.54283 7498 ft 194 kts 129°
2026-05-07 23:02 25.27555 -77.53355 7647 ft 205 kts 101°
2026-05-07 23:02 25.27424 -77.51812 8291 ft 206 kts 94°
2026-05-07 23:02 25.27682 -77.49641 8700 ft 227 kts 77°
2026-05-07 23:03 25.28045 -77.47874 8844 ft 246 kts 77°
2026-05-07 23:03 25.28486 -77.45978 8932 ft 253 kts 69°
2026-05-07 23:03 25.29390 -77.44329 9399 ft 247 kts 52°
2026-05-07 23:03 25.30078 -77.43358 9880 ft 238 kts 51°
2026-05-07 23:04 25.31286 -77.42202 10612 ft 226 kts 27°
2026-05-07 23:04 25.32701 -77.41539 11348 ft 213 kts 21°
2026-05-07 23:04 25.34021 -77.40954 12080 ft 202 kts 21°
2026-05-07 23:04 25.35307 -77.40386 12814 ft 196 kts 21°
2026-05-07 23:05 25.36945 -77.39661 13782 ft 187 kts 21°
2026-05-07 23:05 25.37751 -77.39305 14279 ft 182 kts 21°
2026-05-07 23:05 25.38890 -77.38801 15001 ft 175 kts 21°
2026-05-07 23:05 25.39923 -77.38179 15718 ft 165 kts 44°
2026-05-07 23:06 25.40679 -77.37279 16440 ft 154 kts 47°
2026-05-07 23:06 25.41371 -77.36434 17151 ft 142 kts 47°
2026-05-07 23:06 25.41994 -77.35669 17839 ft 125 kts 47°
2026-05-07 23:06 25.42529 -77.35011 18461 ft 106 kts 47°
2026-05-07 23:07 25.43167 -77.34212 18926 ft 108 kts 47°
2026-05-07 23:07 25.43536 -77.33755 18988 ft 128 kts 47°
2026-05-07 23:07 25.44064 -77.32904 19245 ft 145 kts 73°
2026-05-07 23:07 25.44029 -77.31699 19255 ft 179 kts 109°
2026-05-07 23:08 25.43346 -77.30403 19201 ft 211 kts 125°
2026-05-07 23:08 25.42447 -77.28978 19115 ft 239 kts 125°
2026-05-07 23:08 25.41456 -77.27404 19010 ft 258 kts 125°
2026-05-07 23:08 25.40467 -77.25692 18889 ft 271 kts 116°
2026-05-07 23:09 25.39889 -77.23668 18778 ft 281 kts 103°
2026-05-07 23:09 25.39481 -77.21527 18767 ft 288 kts 101°
2026-05-07 23:09 25.39087 -77.19332 18772 ft 294 kts 101°
2026-05-07 23:09 25.38689 -77.17090 18767 ft 299 kts 101°
2026-05-07 23:10 25.38293 -77.14851 18769 ft 302 kts 101°
2026-05-07 23:10 25.37889 -77.12562 18768 ft 304 kts 101°
2026-05-07 23:10 25.37486 -77.10260 18771 ft 306 kts 101°
2026-05-07 23:10 25.37080 -77.07945 18768 ft 307 kts 101°
2026-05-07 23:11 25.36675 -77.05623 18769 ft 308 kts 101°
2026-05-07 23:11 25.36270 -77.03299 18769 ft 309 kts 101°
2026-05-07 23:11 25.35785 -77.01007 18988 ft 299 kts 110°
2026-05-07 23:11 25.34891 -76.99041 19718 ft 274 kts 121°
2026-05-07 23:12 25.33828 -76.97414 20439 ft 250 kts 135°
2026-05-07 23:12 25.32577 -76.96228 21148 ft 231 kts 141°
2026-05-07 23:12 25.31359 -76.95157 21883 ft 216 kts 142°
2026-05-07 23:12 25.30220 -76.94160 22601 ft 201 kts 142°
2026-05-07 23:13 25.29164 -76.93234 23323 ft 186 kts 142°
2026-05-07 23:13 25.28191 -76.92381 24034 ft 170 kts 142°
2026-05-07 23:13 25.27315 -76.91612 24723 ft 152 kts 142°
2026-05-07 23:13 25.26474 -76.90872 24997 ft 165 kts 142°
2026-05-07 23:14 25.25502 -76.90016 25020 ft 192 kts 142°
2026-05-07 23:14 25.24386 -76.89035 25017 ft 217 kts 142°
2026-05-07 23:14 25.23160 -76.87975 25011 ft 236 kts 145°
2026-05-07 23:14 25.21612 -76.87273 25006 ft 249 kts 171°
2026-05-07 23:15 25.19869 -76.87421 25007 ft 258 kts 198°
2026-05-07 23:15 25.18308 -76.88427 25009 ft 266 kts 221°
2026-05-07 23:15 25.17268 -76.90102 25010 ft 270 kts 248°
2026-05-07 23:15 25.17284 -76.92050 25036 ft 270 kts 317°
2026-05-07 23:16 25.19000 -76.91883 25000 ft 277 kts 40°
2026-05-07 23:16 25.19997 -76.90084 24971 ft 284 kts 81°
2026-05-07 23:16 25.19951 -76.87924 25008 ft 288 kts 93°
2026-05-07 23:16 25.19786 -76.85704 25008 ft 291 kts 96°
2026-05-07 23:17 25.18996 -76.83690 24965 ft 294 kts 143°
2026-05-07 23:17 25.17125 -76.82819 24981 ft 295 kts 155°
2026-05-07 23:17 25.15416 -76.81553 25006 ft 298 kts 141°
2026-05-07 23:17 25.13761 -76.80155 25004 ft 302 kts 143°
2026-05-07 23:18 25.12059 -76.78773 25010 ft 306 kts 144°
2026-05-07 23:18 25.10334 -76.77370 25011 ft 309 kts 144°
2026-05-07 23:18 25.08592 -76.75955 25004 ft 312 kts 144°
2026-05-07 23:18 25.06837 -76.74530 25010 ft 315 kts 144°
2026-05-07 23:19 25.05092 -76.73113 25011 ft 316 kts 144°
2026-05-07 23:19 25.03315 -76.71671 25010 ft 318 kts 144°
2026-05-07 23:19 25.01531 -76.70221 25011 ft 319 kts 144°
2026-05-07 23:19 24.99773 -76.68725 25008 ft 319 kts 141°
2026-05-07 23:20 24.98095 -76.67226 25011 ft 298 kts 141°
2026-05-07 23:20 24.96567 -76.65845 25000 ft 270 kts 141°
2026-05-07 23:20 24.95146 -76.64558 24992 ft 266 kts 141°
2026-05-07 23:20 24.93672 -76.63253 24993 ft 276 kts 142°
2026-05-07 23:21 24.92200 -76.61959 24999 ft 272 kts 142°
2026-05-07 23:21 24.90723 -76.60681 24993 ft 271 kts 142°
2026-05-07 23:21 24.89202 -76.59390 24993 ft 281 kts 142°
2026-05-07 23:21 24.87627 -76.58059 25003 ft 290 kts 143°
2026-05-07 23:22 24.86006 -76.56691 25012 ft 296 kts 143°
2026-05-07 23:22 24.84354 -76.55298 25010 ft 302 kts 143°
2026-05-07 23:22 24.82675 -76.53883 25011 ft 306 kts 143°
2026-05-07 23:22 24.80972 -76.52447 25010 ft 310 kts 143°
2026-05-07 23:23 24.79256 -76.50998 25012 ft 312 kts 143°
2026-05-07 23:23 24.77526 -76.49536 25011 ft 315 kts 143°
2026-05-07 23:23 24.75808 -76.48085 25006 ft 317 kts 142°
2026-05-07 23:23 24.74058 -76.46605 25011 ft 318 kts 142°
2026-05-07 23:24 24.72299 -76.45118 25012 ft 319 kts 142°
2026-05-07 23:24 24.70536 -76.43627 25006 ft 320 kts 143°
2026-05-07 23:24 24.68768 -76.42134 25011 ft 321 kts 143°
2026-05-07 23:24 24.66996 -76.40640 25011 ft 321 kts 143°
2026-05-07 23:25 24.65224 -76.39145 25011 ft 321 kts 143°
2026-05-07 23:25 24.63461 -76.37658 25010 ft 312 kts 143°
2026-05-07 23:25 24.61818 -76.36282 25002 ft 282 kts 143°
2026-05-07 23:25 24.60295 -76.35064 24988 ft 263 kts 144°
2026-05-07 23:26 24.58818 -76.33867 24988 ft 273 kts 143°
2026-05-07 23:26 24.57284 -76.32580 24997 ft 281 kts 143°
2026-05-07 23:26 24.55706 -76.31248 25006 ft 290 kts 142°
2026-05-07 23:26 24.54089 -76.29880 25009 ft 297 kts 142°
2026-05-07 23:27 24.50759 -76.27062 25011 ft 307 kts 142°
2026-05-07 23:27 24.49064 -76.25627 25009 ft 309 kts 142°
2026-05-07 23:27 24.47360 -76.24186 25004 ft 305 kts 142°
2026-05-07 23:28 24.45776 -76.22845 25001 ft 279 kts 142°
2026-05-07 23:28 24.44275 -76.21574 24987 ft 274 kts 142°
2026-05-07 23:28 24.42735 -76.20273 24996 ft 284 kts 142°
2026-05-07 23:28 24.41149 -76.18932 24999 ft 292 kts 142°
2026-05-07 23:29 24.39523 -76.17558 25008 ft 298 kts 142°
2026-05-07 23:29 24.37870 -76.16163 25005 ft 297 kts 142°
2026-05-07 23:29 24.36296 -76.14831 25008 ft 272 kts 142°
2026-05-07 23:29 24.34869 -76.13623 24991 ft 249 kts 142°
2026-05-07 23:30 24.33508 -76.12472 24993 ft 250 kts 142°
2026-05-07 23:30 24.32119 -76.11295 24996 ft 261 kts 142°
2026-05-07 23:30 24.30644 -76.10073 25005 ft 270 kts 143°
2026-05-07 23:30 24.29128 -76.08833 25010 ft 269 kts 143°
2026-05-07 23:31 24.27667 -76.07637 25004 ft 257 kts 143°
2026-05-07 23:31 24.26232 -76.06462 24995 ft 259 kts 143°
2026-05-07 23:31 24.24779 -76.05271 24999 ft 262 kts 143°
2026-05-07 23:31 24.23321 -76.04079 24999 ft 261 kts 143°
2026-05-07 23:32 24.21869 -76.02891 24998 ft 260 kts 143°
2026-05-07 23:32 24.20423 -76.01709 25000 ft 259 kts 143°
2026-05-07 23:32 24.19001 -76.00547 24999 ft 258 kts 143°
2026-05-07 23:32 24.17562 -75.99371 24998 ft 258 kts 143°
2026-05-07 23:33 24.16118 -75.98193 24993 ft 260 kts 143°
2026-05-07 23:33 24.14667 -75.97007 25000 ft 261 kts 143°
2026-05-07 23:33 24.13211 -75.95819 25001 ft 261 kts 143°
2026-05-07 23:33 24.11754 -75.94626 25001 ft 262 kts 143°
2026-05-07 23:34 24.10293 -75.93432 25002 ft 262 kts 143°
2026-05-07 23:34 24.08972 -75.92350 25002 ft 261 kts 143°
2026-05-07 23:34 24.07524 -75.91164 25001 ft 260 kts 143°
2026-05-07 23:34 24.06099 -75.89996 25001 ft 259 kts 143°
2026-05-07 23:35 24.04661 -75.88817 24998 ft 258 kts 143°
2026-05-07 23:35 24.03225 -75.87639 24996 ft 258 kts 143°
2026-05-07 23:35 24.01786 -75.86459 24996 ft 259 kts 143°
2026-05-07 23:35 24.00338 -75.85275 24995 ft 260 kts 143°
2026-05-07 23:36 23.98887 -75.84087 24999 ft 261 kts 143°
2026-05-07 23:36 23.97430 -75.82896 25002 ft 262 kts 143°
2026-05-07 23:36 23.95990 -75.81719 25002 ft 262 kts 143°
2026-05-07 23:36 23.94530 -75.80527 25003 ft 261 kts 143°
2026-05-07 23:37 23.93077 -75.79340 25002 ft 260 kts 143°
2026-05-07 23:37 23.91628 -75.78157 25001 ft 259 kts 143°
2026-05-07 23:37 23.90187 -75.76978 24996 ft 259 kts 143°
2026-05-07 23:37 23.88749 -75.75801 25000 ft 258 kts 143°
2026-05-07 23:38 23.87313 -75.74625 24999 ft 259 kts 143°
2026-05-07 23:38 23.85870 -75.73443 25000 ft 260 kts 143°
2026-05-07 23:38 23.84422 -75.72256 24997 ft 261 kts 143°
2026-05-07 23:38 23.83123 -75.71190 25001 ft 262 kts 143°
2026-05-07 23:39 23.81686 -75.70011 24999 ft 262 kts 143°
2026-05-07 23:39 23.80228 -75.68816 25000 ft 262 kts 143°
2026-05-07 23:39 23.78776 -75.67627 24999 ft 260 kts 143°
2026-05-07 23:39 23.77432 -75.66527 25001 ft 259 kts 143°
2026-05-07 23:40 23.75990 -75.65347 24996 ft 258 kts 143°
2026-05-07 23:40 23.74553 -75.64172 25000 ft 258 kts 143°
2026-05-07 23:40 23.73115 -75.62996 25000 ft 259 kts 143°
2026-05-07 23:40 23.71670 -75.61815 24996 ft 260 kts 143°
2026-05-07 23:41 23.70239 -75.60647 25001 ft 261 kts 144°
2026-05-07 23:41 23.68746 -75.59525 24997 ft 261 kts 145°
2026-05-07 23:41 23.67479 -75.58519 25001 ft 261 kts 144°
2026-05-07 23:41 23.66020 -75.57331 25001 ft 262 kts 143°
2026-05-07 23:42 23.64563 -75.56138 25000 ft 262 kts 143°
2026-05-07 23:42 23.63110 -75.54945 25002 ft 261 kts 143°
2026-05-07 23:42 23.61664 -75.53758 24996 ft 260 kts 143°
2026-05-07 23:42 23.60223 -75.52575 25000 ft 259 kts 143°
2026-05-07 23:43 23.58827 -75.51426 25000 ft 258 kts 143°
2026-05-07 23:43 23.57394 -75.50250 24991 ft 258 kts 143°
2026-05-07 23:43 23.55973 -75.49086 24996 ft 259 kts 143°
2026-05-07 23:43 23.54527 -75.47905 24998 ft 260 kts 145°
2026-05-07 23:44 23.53144 -75.46814 24999 ft 259 kts 145°
2026-05-07 23:44 23.51738 -75.45701 24988 ft 257 kts 144°
2026-05-07 23:44 23.50294 -75.44606 24992 ft 262 kts 146°
2026-05-07 23:44 23.48780 -75.43501 24999 ft 260 kts 146°
2026-05-07 23:45 23.47311 -75.42361 24999 ft 260 kts 144°
2026-05-07 23:45 23.45844 -75.41217 24992 ft 258 kts 145°
2026-05-07 23:45 23.44406 -75.40149 24994 ft 260 kts 145°
2026-05-07 23:45 23.42920 -75.39027 24994 ft 261 kts 145°
2026-05-07 23:46 23.41451 -75.37853 24996 ft 262 kts 143°
2026-05-07 23:46 23.39997 -75.36664 24997 ft 261 kts 143°
2026-05-07 23:46 23.38552 -75.35480 24996 ft 259 kts 143°
2026-05-07 23:46 23.37114 -75.34298 24992 ft 259 kts 143°
2026-05-07 23:47 23.35681 -75.33122 24994 ft 258 kts 143°
2026-05-07 23:47 23.34245 -75.31944 24994 ft 259 kts 143°
2026-05-07 23:47 23.32822 -75.30778 24995 ft 260 kts 143°
2026-05-07 23:47 23.31374 -75.29592 24996 ft 261 kts 143°
2026-05-07 23:48 23.29921 -75.28402 24996 ft 262 kts 143°
2026-05-07 23:48 23.28464 -75.27209 24997 ft 262 kts 143°
2026-05-07 23:48 23.27009 -75.26018 24998 ft 261 kts 143°
2026-05-07 23:48 23.25559 -75.24831 24997 ft 260 kts 143°
2026-05-07 23:49 23.24116 -75.23650 24996 ft 259 kts 143°
2026-05-07 23:49 23.22680 -75.22471 24990 ft 258 kts 143°
2026-05-07 23:49 23.21265 -75.21311 24991 ft 258 kts 143°
2026-05-07 23:49 23.19832 -75.20134 24986 ft 259 kts 143°
2026-05-07 23:50 23.18392 -75.18951 24995 ft 260 kts 143°
2026-05-07 23:50 23.16948 -75.17763 24996 ft 261 kts 143°
2026-05-07 23:50 23.15499 -75.16571 24994 ft 262 kts 143°
2026-05-07 23:50 23.14047 -75.15376 24997 ft 262 kts 143°
2026-05-07 23:51 23.12592 -75.14181 24998 ft 261 kts 143°
2026-05-07 23:51 23.11145 -75.12992 24992 ft 260 kts 143°
2026-05-07 23:51 23.09722 -75.11825 24996 ft 259 kts 143°
2026-05-07 23:51 23.08283 -75.10645 24995 ft 259 kts 143°
2026-05-07 23:52 23.06850 -75.09469 24995 ft 258 kts 143°
2026-05-07 23:52 23.05417 -75.08295 24994 ft 258 kts 143°
2026-05-07 23:52 23.03978 -75.07116 24989 ft 260 kts 143°
2026-05-07 23:52 23.02579 -75.05970 24996 ft 261 kts 143°
2026-05-07 23:53 23.01279 -75.04902 24996 ft 261 kts 143°
2026-05-07 23:53 22.99826 -75.03706 24997 ft 262 kts 143°
2026-05-07 23:53 22.98372 -75.02509 24991 ft 262 kts 143°
2026-05-07 23:53 22.96925 -75.01317 24995 ft 261 kts 143°
2026-05-07 23:54 22.95504 -75.00147 24996 ft 260 kts 143°
2026-05-07 23:54 22.94067 -74.98961 24995 ft 259 kts 143°
2026-05-07 23:54 22.92739 -74.97659 24990 ft 259 kts 129°
2026-05-07 23:54 22.91870 -74.95950 24995 ft 260 kts 114°
2026-05-07 23:55 22.91103 -74.94168 24997 ft 261 kts 118°
2026-05-07 23:55 22.90113 -74.92516 24996 ft 261 kts 127°
2026-05-07 23:55 22.89061 -74.90911 24995 ft 261 kts 124°
2026-05-07 23:55 22.88021 -74.89287 24996 ft 263 kts 126°
2026-05-07 23:56 22.86988 -74.87692 24997 ft 262 kts 125°
2026-05-07 23:56 22.85966 -74.86064 24996 ft 260 kts 124°
2026-05-07 23:56 22.84952 -74.84447 24995 ft 260 kts 124°
2026-05-07 23:56 22.84259 -74.83369 24994 ft 258 kts 127°
2026-05-07 23:57 22.83143 -74.81845 24993 ft 259 kts 129°
2026-05-07 23:57 22.82024 -74.80306 24992 ft 261 kts 128°
2026-05-07 23:57 22.80894 -74.78769 24979 ft 257 kts 125°
2026-05-07 23:57 22.80097 -74.77023 25000 ft 262 kts 115°
2026-05-07 23:58 22.79233 -74.75266 25002 ft 264 kts 122°
2026-05-07 23:58 22.78209 -74.73675 24983 ft 259 kts 127°
2026-05-07 23:58 22.77147 -74.72107 24988 ft 258 kts 126°
2026-05-07 23:58 22.76130 -74.70494 24994 ft 261 kts 124°
2026-05-07 23:59 22.75143 -74.68907 24998 ft 263 kts 124°
2026-05-07 23:59 22.74110 -74.67274 24999 ft 262 kts 124°
2026-05-07 23:59 22.73094 -74.65672 24992 ft 261 kts 124°
2026-05-07 23:59 22.72085 -74.64078 24992 ft 260 kts 124°
2026-05-08 00:00 22.71063 -74.62464 24995 ft 259 kts 124°
2026-05-08 00:00 22.70076 -74.60905 24993 ft 259 kts 124°
2026-05-08 00:00 22.69056 -74.59296 24994 ft 260 kts 124°
2026-05-08 00:00 22.68033 -74.57678 24995 ft 261 kts 124°
2026-05-08 00:01 22.67005 -74.56055 24989 ft 262 kts 124°
2026-05-08 00:01 22.65971 -74.54425 24995 ft 263 kts 124°
2026-05-08 00:01 22.64939 -74.52795 24999 ft 262 kts 124°
2026-05-08 00:01 22.63910 -74.51176 24998 ft 261 kts 124°
2026-05-08 00:02 22.63224 -74.50092 24993 ft 260 kts 124°
2026-05-08 00:02 22.62202 -74.48482 24996 ft 259 kts 124°
2026-05-08 00:02 22.61196 -74.46901 24995 ft 258 kts 124°
2026-05-08 00:02 22.60179 -74.45298 24994 ft 258 kts 124°
2026-05-08 00:03 22.59172 -74.43715 24987 ft 253 kts 124°
2026-05-08 00:03 22.58186 -74.42163 24991 ft 248 kts 124°
2026-05-08 00:03 22.57215 -74.40635 24989 ft 245 kts 125°
2026-05-08 00:03 22.56253 -74.39125 24994 ft 242 kts 124°
2026-05-08 00:04 22.55304 -74.37631 24994 ft 240 kts 124°
2026-05-08 00:04 22.54361 -74.36149 24993 ft 239 kts 125°
2026-05-08 00:04 22.53422 -74.34675 24991 ft 237 kts 124°
2026-05-08 00:04 22.52502 -74.33227 24992 ft 236 kts 124°
2026-05-08 00:05 22.51571 -74.31766 24992 ft 236 kts 125°
2026-05-08 00:05 22.50644 -74.30308 24992 ft 235 kts 124°
2026-05-08 00:05 22.49718 -74.28855 24991 ft 234 kts 125°
2026-05-08 00:05 22.48793 -74.27404 24992 ft 234 kts 124°
2026-05-08 00:06 22.47871 -74.25954 24992 ft 234 kts 125°
2026-05-08 00:06 22.46947 -74.24507 24992 ft 234 kts 125°
2026-05-08 00:06 22.46026 -74.23060 24992 ft 233 kts 124°
2026-05-08 00:06 22.45104 -74.21616 24992 ft 233 kts 125°
2026-05-08 00:07 22.44196 -74.20192 24991 ft 233 kts 124°
2026-05-08 00:07 22.43275 -74.18750 24991 ft 233 kts 125°
2026-05-08 00:07 22.42353 -74.17308 24992 ft 233 kts 125°
2026-05-08 00:07 22.41433 -74.15866 24992 ft 233 kts 125°
2026-05-08 00:08 22.40511 -74.14425 24992 ft 233 kts 125°
2026-05-08 00:08 22.39592 -74.12984 24988 ft 233 kts 125°
2026-05-08 00:08 22.38670 -74.11545 24992 ft 233 kts 125°
2026-05-08 00:08 22.37750 -74.10104 24987 ft 233 kts 125°
2026-05-08 00:09 22.36842 -74.08685 24987 ft 233 kts 125°
2026-05-08 00:09 22.35921 -74.07247 24987 ft 233 kts 125°
2026-05-08 00:09 22.35002 -74.05807 24992 ft 233 kts 125°
2026-05-08 00:09 22.34702 -74.05338 24992 ft 233 kts 125°
2026-05-08 00:10 22.34238 -74.04615 24992 ft 233 kts 125°
2026-05-08 00:10 22.33332 -74.03196 24992 ft 233 kts 125°
2026-05-08 00:11 22.32412 -74.01757 24992 ft 233 kts 125°
2026-05-08 00:11 22.31491 -74.00320 24988 ft 233 kts 125°
2026-05-08 00:11 22.30571 -73.98881 24992 ft 233 kts 125°
2026-05-08 00:11 22.29649 -73.97445 24992 ft 233 kts 125°
2026-05-08 00:12 22.28729 -73.96006 24992 ft 233 kts 125°
2026-05-08 00:12 22.27807 -73.94570 24992 ft 233 kts 125°
2026-05-08 00:12 22.27632 -73.94297 24992 ft 233 kts 125°
2026-05-08 00:13 22.27624 -73.94284 24992 ft 233 kts 125°
2026-05-08 00:13 22.26701 -73.92846 24992 ft 233 kts 125°
2026-05-08 00:13 22.25777 -73.91410 24992 ft 233 kts 125°
2026-05-08 00:13 22.24856 -73.89973 24992 ft 233 kts 125°
2026-05-08 00:14 22.23933 -73.88537 24992 ft 233 kts 125°
2026-05-08 00:14 22.23010 -73.87100 24992 ft 233 kts 125°
2026-05-08 00:14 22.22088 -73.85663 24988 ft 233 kts 125°
2026-05-08 00:14 22.21164 -73.84228 24992 ft 233 kts 125°
2026-05-08 00:15 22.20255 -73.82810 24992 ft 233 kts 125°
2026-05-08 00:15 22.19331 -73.81376 24992 ft 233 kts 125°
2026-05-08 00:15 22.18409 -73.79941 24992 ft 233 kts 125°
2026-05-08 00:15 22.17486 -73.78505 24992 ft 233 kts 125°
2026-05-08 00:16 22.16564 -73.77072 24992 ft 233 kts 125°
2026-05-08 00:16 22.15642 -73.75636 24992 ft 233 kts 125°
2026-05-08 00:16 22.14718 -73.74203 24988 ft 233 kts 125°
2026-05-08 00:16 22.13795 -73.72767 24993 ft 233 kts 125°
2026-05-08 00:17 22.12885 -73.71353 24987 ft 233 kts 125°
2026-05-08 00:17 22.11962 -73.69920 24993 ft 233 kts 125°
2026-05-08 00:17 22.11039 -73.68485 24993 ft 233 kts 125°
2026-05-08 00:17 22.10113 -73.67051 24993 ft 233 kts 125°
2026-05-08 00:18 22.09191 -73.65616 24993 ft 233 kts 125°
2026-05-08 00:18 22.08264 -73.64183 24993 ft 233 kts 125°
2026-05-08 00:18 22.07340 -73.62751 24988 ft 233 kts 125°
2026-05-08 00:18 22.06415 -73.61317 24993 ft 233 kts 125°
2026-05-08 00:19 22.05489 -73.59884 24993 ft 233 kts 125°
2026-05-08 00:19 22.04564 -73.58449 24993 ft 233 kts 125°
2026-05-08 00:19 22.03650 -73.57036 24993 ft 233 kts 125°
2026-05-08 00:19 22.02726 -73.55604 24993 ft 233 kts 125°
2026-05-08 00:20 22.01801 -73.54173 24993 ft 233 kts 125°
2026-05-08 00:20 22.00875 -73.52741 24993 ft 233 kts 125°
2026-05-08 00:20 21.99950 -73.51309 24989 ft 233 kts 125°
2026-05-08 00:20 21.99025 -73.49879 24989 ft 233 kts 125°
2026-05-08 00:21 21.98101 -73.48446 24993 ft 233 kts 125°
2026-05-08 00:21 21.97173 -73.47015 24993 ft 233 kts 125°
2026-05-08 00:21 21.96262 -73.45604 24993 ft 233 kts 125°
2026-05-08 00:21 21.95336 -73.44173 24989 ft 233 kts 125°
2026-05-08 00:22 21.94410 -73.42744 24993 ft 233 kts 125°
2026-05-08 00:22 21.93485 -73.41311 24993 ft 233 kts 125°
2026-05-08 00:22 21.92557 -73.39880 24993 ft 233 kts 125°
2026-05-08 00:22 21.91631 -73.38450 24993 ft 233 kts 125°
2026-05-08 00:23 21.90704 -73.37020 24993 ft 233 kts 125°
2026-05-08 00:23 21.89775 -73.35590 24993 ft 233 kts 125°
2026-05-08 00:23 21.88862 -73.34179 24993 ft 233 kts 125°
2026-05-08 00:23 21.87933 -73.32749 24993 ft 233 kts 125°
2026-05-08 00:24 21.87006 -73.31319 24990 ft 233 kts 125°
2026-05-08 00:24 21.86078 -73.29891 24993 ft 233 kts 125°
2026-05-08 00:24 21.85150 -73.28461 24992 ft 233 kts 125°
2026-05-08 00:24 21.84224 -73.27030 24993 ft 233 kts 125°
2026-05-08 00:25 21.83291 -73.25596 24993 ft 238 kts 125°
2026-05-08 00:25 21.82320 -73.24100 25000 ft 249 kts 125°
2026-05-08 00:25 21.81329 -73.22573 25013 ft 256 kts 125°
2026-05-08 00:25 21.80292 -73.20977 25009 ft 264 kts 125°
2026-05-08 00:26 21.79226 -73.19337 25012 ft 271 kts 125°
2026-05-08 00:26 21.78136 -73.17660 25012 ft 277 kts 125°
2026-05-08 00:26 21.77018 -73.15941 25009 ft 284 kts 125°
2026-05-08 00:26 21.75872 -73.14181 25003 ft 290 kts 125°
2026-05-08 00:27 21.74703 -73.12387 25012 ft 295 kts 125°
2026-05-08 00:27 21.73515 -73.10564 25009 ft 300 kts 125°
2026-05-08 00:27 21.72310 -73.08713 25010 ft 304 kts 125°
2026-05-08 00:27 21.71092 -73.06845 25003 ft 307 kts 125°
2026-05-08 00:28 21.69878 -73.04984 25010 ft 310 kts 125°
2026-05-08 00:28 21.68637 -73.03080 25004 ft 312 kts 125°
2026-05-08 00:28 21.67388 -73.01164 25002 ft 314 kts 125°
2026-05-08 00:28 21.66132 -72.99237 25011 ft 316 kts 125°
2026-05-08 00:29 21.64866 -72.97297 25011 ft 317 kts 125°
2026-05-08 00:29 21.63596 -72.95352 25009 ft 319 kts 125°
2026-05-08 00:29 21.62321 -72.93400 25010 ft 320 kts 125°
2026-05-08 00:29 21.61043 -72.91444 25004 ft 320 kts 125°
2026-05-08 00:30 21.59777 -72.89509 25004 ft 321 kts 125°
2026-05-08 00:30 21.58490 -72.87544 25010 ft 322 kts 125°
2026-05-08 00:30 21.57203 -72.85574 25006 ft 322 kts 125°
2026-05-08 00:30 21.55915 -72.83606 25005 ft 322 kts 125°
2026-05-08 00:31 21.54623 -72.81635 25011 ft 323 kts 125°
2026-05-08 00:31 21.53331 -72.79660 25011 ft 323 kts 125°
2026-05-08 00:31 21.52041 -72.77690 25005 ft 323 kts 125°
2026-05-08 00:31 21.50753 -72.75723 25004 ft 321 kts 125°
2026-05-08 00:32 21.49468 -72.73762 25008 ft 320 kts 125°
2026-05-08 00:32 21.48203 -72.71833 25008 ft 320 kts 125°
2026-05-08 00:32 21.46923 -72.69883 25007 ft 319 kts 125°
2026-05-08 00:32 21.45647 -72.67937 25000 ft 319 kts 125°
2026-05-08 00:33 21.44371 -72.65994 25006 ft 319 kts 125°
2026-05-08 00:33 21.43089 -72.64046 25007 ft 320 kts 125°
2026-05-08 00:33 21.41808 -72.62093 25007 ft 321 kts 125°
2026-05-08 00:33 21.40522 -72.60137 25008 ft 321 kts 125°
2026-05-08 00:34 21.39232 -72.58177 25009 ft 322 kts 125°
2026-05-08 00:34 21.37942 -72.56214 25009 ft 322 kts 125°
2026-05-08 00:34 21.36667 -72.54275 25009 ft 322 kts 125°
2026-05-08 00:34 21.35374 -72.52309 25010 ft 323 kts 125°
2026-05-08 00:35 21.34078 -72.50341 25010 ft 323 kts 125°
2026-05-08 00:35 21.32791 -72.48385 25010 ft 318 kts 125°
2026-05-08 00:35 21.31527 -72.46465 25000 ft 313 kts 125°
2026-05-08 00:35 21.30272 -72.44562 24997 ft 313 kts 125°
2026-05-08 00:36 21.29011 -72.42650 24997 ft 315 kts 125°
2026-05-08 00:36 21.27742 -72.40729 25004 ft 317 kts 125°
2026-05-08 00:36 21.26488 -72.38827 25005 ft 316 kts 125°
2026-05-08 00:36 21.25220 -72.36905 25005 ft 315 kts 125°
2026-05-08 00:37 21.23955 -72.34990 25004 ft 314 kts 125°
2026-05-08 00:37 21.22696 -72.33083 25003 ft 313 kts 125°
2026-05-08 00:37 21.21437 -72.31179 25002 ft 312 kts 125°
2026-05-08 00:38 21.18920 -72.27367 25003 ft 314 kts 126°
2026-05-08 00:38 21.17654 -72.25454 25004 ft 315 kts 125°
2026-05-08 00:38 21.16385 -72.23533 25004 ft 316 kts 125°
2026-05-08 00:38 21.15113 -72.21610 25005 ft 317 kts 126°
2026-05-08 00:39 21.13838 -72.19685 25006 ft 317 kts 126°
2026-05-08 00:39 21.12582 -72.17790 25006 ft 316 kts 126°
2026-05-08 00:39 21.11313 -72.15875 24998 ft 315 kts 126°
2026-05-08 00:39 21.10050 -72.13968 25004 ft 314 kts 126°
2026-05-08 00:40 21.08788 -72.12065 25003 ft 313 kts 126°
2026-05-08 00:40 21.07528 -72.10166 25003 ft 312 kts 126°
2026-05-08 00:40 21.06269 -72.08266 25002 ft 313 kts 126°
2026-05-08 00:40 21.05007 -72.06362 25003 ft 314 kts 126°
2026-05-08 00:41 21.03755 -72.04476 25004 ft 315 kts 126°
2026-05-08 00:41 21.02484 -72.02562 25000 ft 316 kts 126°
2026-05-08 00:41 21.01209 -72.00641 25005 ft 317 kts 126°
2026-05-08 00:41 20.99932 -71.98719 25006 ft 317 kts 126°
2026-05-08 00:42 20.98659 -71.96802 25006 ft 315 kts 126°
2026-05-08 00:42 20.97388 -71.94894 24996 ft 315 kts 126°
2026-05-08 00:42 20.96121 -71.92990 25004 ft 314 kts 126°
2026-05-08 00:42 20.94857 -71.91088 24998 ft 313 kts 126°
2026-05-08 00:43 20.93596 -71.89195 25003 ft 312 kts 126°
2026-05-08 00:43 20.92333 -71.87299 25002 ft 313 kts 126°
2026-05-08 00:43 20.91086 -71.85426 25003 ft 314 kts 126°
2026-05-08 00:43 20.89815 -71.83519 24998 ft 315 kts 126°
2026-05-08 00:44 20.88543 -71.81607 25005 ft 316 kts 126°
2026-05-08 00:44 20.87266 -71.79691 25006 ft 317 kts 126°
2026-05-08 00:44 20.85986 -71.77773 25006 ft 317 kts 126°
2026-05-08 00:44 20.84710 -71.75859 25002 ft 316 kts 126°
2026-05-08 00:45 20.83437 -71.73951 24999 ft 315 kts 126°
2026-05-08 00:45 20.82182 -71.72071 25004 ft 314 kts 126°
2026-05-08 00:45 20.80914 -71.70175 25004 ft 313 kts 126°
2026-05-08 00:45 20.79651 -71.68285 25003 ft 312 kts 126°
2026-05-08 00:46 20.78386 -71.66389 25003 ft 314 kts 126°
2026-05-08 00:46 20.77114 -71.64490 25004 ft 315 kts 126°
2026-05-08 00:46 20.75837 -71.62580 25005 ft 316 kts 126°
2026-05-08 00:46 20.74559 -71.60668 25006 ft 316 kts 126°
2026-05-08 00:47 20.73278 -71.58753 25006 ft 317 kts 126°
2026-05-08 00:47 20.71998 -71.56839 25002 ft 316 kts 126°
2026-05-08 00:47 20.70736 -71.54955 25006 ft 315 kts 126°
2026-05-08 00:47 20.69465 -71.53055 25005 ft 314 kts 126°
2026-05-08 00:48 20.68195 -71.51159 25004 ft 313 kts 126°
2026-05-08 00:48 20.66929 -71.49271 25004 ft 312 kts 126°
2026-05-08 00:48 20.65661 -71.47381 24998 ft 313 kts 126°
2026-05-08 00:48 20.64390 -71.45487 25004 ft 314 kts 126°
2026-05-08 00:49 20.63114 -71.43586 25005 ft 315 kts 126°
2026-05-08 00:49 20.61836 -71.41681 25006 ft 316 kts 126°
2026-05-08 00:49 20.60551 -71.39768 25006 ft 317 kts 126°
2026-05-08 00:49 20.59268 -71.37857 25007 ft 316 kts 126°
2026-05-08 00:50 20.57990 -71.35951 25006 ft 315 kts 126°
2026-05-08 00:50 20.56712 -71.34049 25006 ft 314 kts 126°
2026-05-08 00:50 20.55438 -71.32157 25005 ft 313 kts 126°
2026-05-08 00:50 20.54168 -71.30265 25004 ft 313 kts 126°
2026-05-08 00:51 20.52914 -71.28400 25003 ft 313 kts 126°
2026-05-08 00:51 20.51641 -71.26510 25004 ft 314 kts 126°
2026-05-08 00:51 20.50366 -71.24615 25005 ft 315 kts 126°
2026-05-08 00:51 20.49080 -71.22708 25006 ft 316 kts 126°
2026-05-08 00:52 20.47797 -71.20802 25006 ft 317 kts 126°
2026-05-08 00:52 20.46510 -71.18892 25007 ft 317 kts 126°
2026-05-08 00:52 20.45226 -71.16989 25001 ft 315 kts 126°
2026-05-08 00:52 20.43948 -71.15092 25006 ft 314 kts 126°
2026-05-08 00:53 20.42670 -71.13196 25005 ft 314 kts 126°
2026-05-08 00:53 20.41255 -71.11438 24991 ft 313 kts 138°
2026-05-08 00:53 20.39546 -71.10002 24992 ft 313 kts 142°
2026-05-08 00:53 20.37843 -71.08582 24996 ft 315 kts 142°
2026-05-08 00:54 20.36132 -71.07136 24996 ft 316 kts 142°
2026-05-08 00:54 20.34425 -71.05708 24996 ft 316 kts 142°
2026-05-08 00:54 20.32683 -71.04256 25001 ft 315 kts 142°
2026-05-08 00:54 20.30962 -71.02818 24991 ft 314 kts 142°
2026-05-08 00:55 20.29246 -71.01385 24997 ft 313 kts 142°
2026-05-08 00:55 20.27530 -70.99952 24991 ft 312 kts 142°
2026-05-08 00:55 20.25816 -70.98521 24998 ft 312 kts 142°
2026-05-08 00:55 20.24102 -70.97091 24998 ft 314 kts 142°
2026-05-08 00:56 20.22381 -70.95654 24997 ft 314 kts 142°
2026-05-08 00:56 20.20659 -70.94215 24995 ft 315 kts 142°
2026-05-08 00:56 20.18951 -70.92791 24999 ft 316 kts 142°
2026-05-08 00:56 20.17218 -70.91347 24992 ft 317 kts 142°
2026-05-08 00:57 20.15488 -70.89903 25002 ft 315 kts 142°
2026-05-08 00:57 20.13763 -70.88465 25001 ft 314 kts 142°
2026-05-08 00:57 20.12042 -70.87033 24998 ft 314 kts 142°
2026-05-08 00:57 20.10324 -70.85602 24999 ft 313 kts 142°
2026-05-08 00:58 20.08613 -70.84180 24994 ft 312 kts 142°
2026-05-08 00:58 20.06900 -70.82753 24992 ft 313 kts 142°
2026-05-08 00:58 20.05184 -70.81325 24999 ft 314 kts 142°
2026-05-08 00:58 20.03457 -70.79890 25000 ft 315 kts 142°
2026-05-08 00:59 20.01728 -70.78451 25001 ft 316 kts 142°
2026-05-08 00:59 19.99996 -70.77010 24997 ft 316 kts 142°
2026-05-08 00:59 19.98262 -70.75568 24997 ft 316 kts 142°
2026-05-08 00:59 19.96551 -70.74147 24993 ft 315 kts 142°
2026-05-08 01:00 19.94827 -70.72714 24997 ft 314 kts 142°
2026-05-08 01:00 19.93088 -70.71269 25000 ft 313 kts 142°
2026-05-08 01:00 19.91373 -70.69846 24999 ft 312 kts 142°
2026-05-08 01:00 19.89676 -70.68438 24994 ft 312 kts 142°
2026-05-08 01:01 19.87955 -70.67012 24997 ft 314 kts 142°
2026-05-08 01:01 19.86233 -70.65583 24997 ft 315 kts 142°
2026-05-08 01:01 19.84506 -70.64150 24996 ft 315 kts 142°
2026-05-08 01:01 19.82774 -70.62716 24999 ft 316 kts 142°
2026-05-08 01:02 19.81039 -70.61278 24997 ft 316 kts 142°
2026-05-08 01:02 19.79304 -70.59840 25002 ft 315 kts 142°
2026-05-08 01:02 19.77578 -70.58409 24999 ft 314 kts 142°
2026-05-08 01:02 19.75965 -70.56860 24991 ft 313 kts 131°
2026-05-08 01:03 19.74752 -70.54979 24990 ft 312 kts 121°
2026-05-08 01:03 19.73641 -70.52989 24994 ft 314 kts 121°
2026-05-08 01:03 19.72511 -70.50996 24992 ft 316 kts 121°
2026-05-08 01:03 19.71371 -70.48989 24998 ft 317 kts 121°
2026-05-08 01:04 19.70234 -70.46981 24998 ft 318 kts 121°
2026-05-08 01:04 19.69096 -70.44972 24991 ft 317 kts 121°
2026-05-08 01:04 19.67960 -70.42969 24998 ft 316 kts 121°
2026-05-08 01:04 19.66829 -70.40973 24998 ft 315 kts 121°
2026-05-08 01:05 19.65698 -70.38978 24989 ft 315 kts 121°
2026-05-08 01:05 19.64566 -70.36984 24997 ft 315 kts 121°
2026-05-08 01:05 19.63440 -70.34996 24996 ft 314 kts 121°
2026-05-08 01:05 19.62325 -70.33032 24991 ft 314 kts 121°
2026-05-08 01:06 19.61197 -70.31045 24996 ft 313 kts 121°
2026-05-08 01:06 19.60070 -70.29058 24995 ft 314 kts 121°
2026-05-08 01:06 19.58940 -70.27069 24996 ft 315 kts 121°
2026-05-08 01:06 19.58187 -70.25746 24997 ft 316 kts 121°
2026-05-08 01:07 19.56676 -70.23089 24993 ft 317 kts 121°
2026-05-08 01:07 19.55534 -70.21083 24998 ft 317 kts 121°
2026-05-08 01:07 19.54395 -70.19079 24998 ft 317 kts 121°
2026-05-08 01:07 19.53625 -70.17726 24998 ft 317 kts 121°
2026-05-08 01:08 19.52499 -70.15750 24998 ft 317 kts 121°
2026-05-08 01:08 19.51361 -70.13751 24998 ft 317 kts 121°
2026-05-08 01:08 19.50220 -70.11748 24998 ft 316 kts 121°
2026-05-08 01:08 19.49083 -70.09750 24991 ft 316 kts 121°
2026-05-08 01:09 19.47945 -70.07752 24989 ft 316 kts 121°
2026-05-08 01:09 19.46810 -70.05764 24998 ft 316 kts 121°
2026-05-08 01:09 19.45675 -70.03772 24998 ft 315 kts 121°
2026-05-08 01:09 19.44538 -70.01778 24998 ft 315 kts 121°
2026-05-08 01:10 19.43403 -69.99791 24998 ft 315 kts 121°
2026-05-08 01:10 19.42264 -69.97799 24998 ft 315 kts 121°
2026-05-08 01:10 19.41146 -69.95842 24998 ft 315 kts 121°
2026-05-08 01:10 19.40008 -69.93850 24998 ft 315 kts 121°
2026-05-08 01:11 19.38871 -69.91859 24997 ft 315 kts 121°
2026-05-08 01:11 19.37735 -69.89874 24997 ft 315 kts 121°
2026-05-08 01:11 19.36601 -69.87891 24997 ft 315 kts 121°
2026-05-08 01:11 19.35468 -69.85906 24997 ft 315 kts 121°
2026-05-08 01:12 19.34331 -69.83920 24997 ft 315 kts 121°
2026-05-08 01:12 19.33196 -69.81938 24993 ft 315 kts 121°
2026-05-08 01:12 19.32076 -69.79979 24992 ft 315 kts 121°
2026-05-08 01:12 19.30938 -69.77993 24998 ft 315 kts 121°
2026-05-08 01:13 19.29800 -69.76008 24998 ft 315 kts 121°
2026-05-08 01:13 19.28665 -69.74027 24998 ft 315 kts 121°
2026-05-08 01:13 19.27525 -69.72043 24998 ft 315 kts 121°
2026-05-08 01:13 19.26415 -69.70042 24996 ft 314 kts 118°
2026-05-08 01:14 19.25364 -69.68010 24996 ft 314 kts 119°
2026-05-08 01:14 19.24300 -69.65994 24991 ft 314 kts 119°
2026-05-08 01:14 19.23239 -69.63974 24994 ft 314 kts 119°
2026-05-08 01:14 19.22183 -69.61951 24997 ft 314 kts 119°
2026-05-08 01:15 19.21124 -69.59929 24994 ft 314 kts 119°
2026-05-08 01:15 19.20072 -69.57925 24991 ft 315 kts 119°
2026-05-08 01:15 19.19010 -69.55897 24994 ft 315 kts 119°
2026-05-08 01:15 19.17948 -69.53870 24997 ft 315 kts 119°
2026-05-08 01:16 19.16884 -69.51844 24997 ft 315 kts 119°
2026-05-08 01:16 19.15823 -69.49822 24997 ft 315 kts 119°
2026-05-08 01:16 19.14757 -69.47797 24996 ft 315 kts 119°
2026-05-08 01:16 19.13695 -69.45772 24991 ft 315 kts 119°
2026-05-08 01:17 19.12630 -69.43747 24989 ft 315 kts 119°
2026-05-08 01:17 19.11564 -69.41719 24998 ft 315 kts 119°
2026-05-08 01:17 19.10500 -69.39694 24998 ft 315 kts 119°
2026-05-08 01:17 19.09448 -69.37695 24989 ft 315 kts 119°
2026-05-08 01:18 19.08384 -69.35669 24998 ft 315 kts 119°
2026-05-08 01:18 19.07318 -69.33644 24998 ft 315 kts 119°
2026-05-08 01:18 19.06253 -69.31621 24998 ft 315 kts 119°
2026-05-08 01:18 19.05186 -69.29593 24996 ft 315 kts 119°
2026-05-08 01:19 19.04115 -69.27559 24998 ft 315 kts 119°
2026-05-08 01:19 19.03044 -69.25530 24998 ft 315 kts 119°
2026-05-08 01:19 19.01978 -69.23508 24998 ft 315 kts 119°
2026-05-08 01:19 19.00909 -69.21484 24998 ft 315 kts 119°
2026-05-08 01:20 18.99855 -69.19484 24998 ft 315 kts 119°
2026-05-08 01:20 18.98786 -69.17458 24998 ft 315 kts 119°
2026-05-08 01:20 18.97719 -69.15438 24998 ft 315 kts 119°
2026-05-08 01:20 18.96647 -69.13407 24826 ft 320 kts 119°
2026-05-08 01:21 18.95561 -69.11350 24457 ft 318 kts 119°
2026-05-08 01:21 18.94490 -69.09323 24078 ft 313 kts 119°
2026-05-08 01:21 18.93432 -69.07322 23603 ft 312 kts 119°
2026-05-08 01:21 18.92366 -69.05305 22981 ft 316 kts 119°
2026-05-08 01:22 18.91289 -69.03269 22361 ft 319 kts 119°
2026-05-08 01:22 18.90205 -69.01220 21740 ft 320 kts 119°
2026-05-08 01:22 18.89117 -68.99166 21117 ft 321 kts 119°
2026-05-08 01:22 18.88044 -68.97137 20503 ft 321 kts 119°
2026-05-08 01:23 18.86955 -68.95082 19881 ft 320 kts 119°
2026-05-08 01:23 18.85873 -68.93039 18967 ft 315 kts 120°
2026-05-08 01:23 18.84755 -68.91010 17380 ft 319 kts 121°
2026-05-08 01:23 18.83621 -68.89018 16092 ft 311 kts 121°
2026-05-08 01:24 18.82517 -68.87147 14811 ft 302 kts 123°
2026-05-08 01:24 18.81412 -68.85390 13704 ft 294 kts 124°
2026-05-08 01:24 18.80267 -68.83645 12707 ft 277 kts 125°
2026-05-08 01:24 18.79184 -68.82011 11673 ft 268 kts 125°
2026-05-08 01:25 18.78194 -68.80506 11264 ft 240 kts 125°
2026-05-08 01:25 18.77238 -68.79065 10365 ft 239 kts 126°
2026-05-08 01:25 18.76289 -68.77714 9899 ft 221 kts 120°
2026-05-08 01:25 18.75948 -68.76157 9310 ft 217 kts 92°
2026-05-08 01:26 18.75891 -68.74699 9116 ft 179 kts 94°
2026-05-08 01:26 18.75728 -68.73493 8960 ft 160 kts 106°
2026-05-08 01:26 18.75295 -68.72478 8985 ft 147 kts 118°
2026-05-08 01:26 18.74802 -68.71496 8997 ft 158 kts 118°
2026-05-08 01:27 18.74259 -68.70419 8634 ft 177 kts 118°
2026-05-08 01:27 18.73690 -68.69295 8052 ft 172 kts 118°
2026-05-08 01:27 18.73128 -68.68186 7439 ft 171 kts 118°
2026-05-08 01:27 18.72570 -68.67086 6819 ft 170 kts 118°
2026-05-08 01:28 18.72014 -68.65994 6199 ft 168 kts 118°
2026-05-08 01:28 18.71464 -68.64908 5578 ft 167 kts 118°
2026-05-08 01:28 18.70916 -68.63831 4961 ft 166 kts 118°
2026-05-08 01:28 18.70371 -68.62758 4340 ft 165 kts 118°
2026-05-08 01:29 18.69842 -68.61716 4004 ft 149 kts 118°
2026-05-08 01:29 18.69404 -68.60855 3986 ft 131 kts 118°
2026-05-08 01:29 18.68959 -68.59981 3988 ft 141 kts 118°
2026-05-08 01:29 18.68472 -68.59018 4012 ft 151 kts 118°
2026-05-08 01:30 18.67977 -68.58045 4005 ft 150 kts 118°
2026-05-08 01:30 18.67481 -68.57084 4010 ft 149 kts 120°
2026-05-08 01:30 18.66967 -68.56137 4009 ft 149 kts 121°
2026-05-08 01:30 18.66424 -68.55181 3934 ft 153 kts 122°
2026-05-08 01:31 18.65876 -68.54249 3927 ft 148 kts 122°
2026-05-08 01:31 18.65298 -68.53303 3920 ft 154 kts 123°
2026-05-08 01:31 18.64733 -68.52405 3914 ft 143 kts 124°
2026-05-08 01:31 18.64185 -68.51563 3913 ft 136 kts 125°
2026-05-08 01:32 18.63449 -68.50998 3924 ft 134 kts 161°
2026-05-08 01:32 18.62539 -68.50606 3694 ft 154 kts 156°
2026-05-08 01:32 18.61515 -68.50128 3236 ft 167 kts 157°
2026-05-08 01:32 18.60432 -68.49641 2932 ft 165 kts 159°
2026-05-08 01:33 18.59428 -68.49204 2917 ft 148 kts 158°
2026-05-08 01:33 18.58528 -68.48802 2922 ft 130 kts 158°
2026-05-08 01:33 18.57741 -68.48447 2913 ft 119 kts 158°
2026-05-08 01:33 18.57028 -68.47991 2921 ft 124 kts 130°
2026-05-08 01:34 18.56619 -68.47186 2887 ft 133 kts 107°
2026-05-08 01:34 18.56346 -68.46203 2496 ft 142 kts 106°
2026-05-08 01:34 18.56110 -68.45194 2087 ft 142 kts 98°
2026-05-08 01:34 18.56113 -68.44218 1894 ft 129 kts 87°
2026-05-08 01:35 18.56160 -68.43280 1515 ft 121 kts 86°
2026-05-08 01:35 18.56221 -68.42433 1133 ft 112 kts 85°
2026-05-08 01:35 18.56284 -68.41654 853 ft 104 kts 85°
2026-05-08 01:35 18.56336 -68.40906 683 ft 103 kts 86°
2026-05-08 01:36 18.56399 -68.40141 549 ft 106 kts 84°
2026-05-08 01:36 18.56476 -68.39360 398 ft 109 kts 84°
2026-05-08 01:36 18.56542 -68.38582 248 ft 107 kts 85°
2026-05-08 01:36 18.56607 -68.37822 86 ft 98 kts 84°
2026-05-08 01:37 18.56665 -68.37195 43 ft 74 kts 84°
2026-05-08 01:37 18.56709 -68.36728 47 ft 40 kts 84°
2026-05-08 01:37 18.56724 -68.36563 47 ft 18 kts 88°
2026-05-08 01:37 18.56722 -68.36448 47 ft 14 kts 104°
2026-05-08 01:38 18.56647 -68.36422 45 ft 12 kts 176°
2026-05-08 01:38 18.56576 -68.36418 45 ft 9 kts 185°
2026-05-08 01:38 18.56524 -68.36404 45 ft 8 kts 154°
2026-05-08 01:38 18.56474 -68.36380 45 ft 9 kts 123°
2026-05-08 01:39 18.56485 -68.36327 45 ft 7 kts
2026-05-08 01:39 18.56520 -68.36332 45 ft 4 kts
2026-05-08 01:39 18.56547 -68.36333 45 ft 4 kts 355°
2026-05-08 01:39 18.56555 -68.36333 45 ft 2 kts 355°
2026-05-08 01:40 18.56557 -68.36333 45 ft 0 kts 355°